Juneau, AK

3:43 PM AKDT on May 27, 2017 (GMT -0800)
Juneau International

Weather History for PAJN - October, 2013

Change the Weather History Date:

Monday, October 28, 2013

  Actual Average Record
Temperature  
Mean Temperature 46 °F 38 °F  
Max Temperature 50 °F 43 °F 52 °F (1952)
Min Temperature 41 °F 34 °F 17 °F (1945)
Degree Days  
Heating Degree Days 19 27  
Month to date heating degree days 560 618  
Since 1 July heating degree days 1382 1602  
Cooling Degree Days 0 0  
Month to date cooling degree days 0 0  
Year to date cooling degree days 9 2  
Moisture  
Dew Point 38 °F    
Average Humidity 72    
Maximum Humidity 93    
Minimum Humidity 50    
Precipitation  
Precipitation 0.02 in 0.24 in 1.36 in (2008)
Month to date precipitation 9.43 7.91  
Year to date precipitation 57.87 49.72  
Snow  
Snow 0.00 in 0.10 in 1.70 in (1971)
Month to date snowfall T 0.4  
Since 1 July snowfall T 0.4  
Since 1 September snowfall T 0.4  
Snow Depth 0.00 in    
Sea Level Pressure  
Sea Level Pressure 30.13 in    
Wind  
Wind Speed 7 mph (East)    
Max Wind Speed 21 mph    
Max Gust Speed 25 mph    
Visibility 10 miles    
Events Fog , Rain    
T = Trace of Precipitation, MM = Missing Value Source: NWS Daily Summary

Daily Weather History Graph

Daily Weather History Graph

Search for Another Location

Airport or City:

Trip Planner

Search our weather history database for the weather conditions in past years. The results will help you decide how hot, cold, wet, or windy it might be!

Date:

Astronomy

Oct. 28, 2013 Rise Set
Actual Time 8:05 AM AKDT 5:17 PM AKDT
Civil Twilight 7:23 AM AKDT 5:59 PM AKDT
Nautical Twilight 6:36 AM AKDT 6:46 PM AKDT
Astronomical Twilight 5:50 AM AKDT 7:32 PM AKDT
Moon 12:50 AM AKDT (10/28) 3:11 PM AKDT (10/28)
Length of Visible Light 10h 36m
Length of Day
9h 12m
Waning Crescent, 33% of the Moon is Illuminated
Oct 28
Waning Crescent
Nov 3
New
Nov 9
First Quarter
Nov 17
Full
Nov 25
Last Quarter

Hourly Weather History & Observations

Time (AKDT) Temp. Windchill Dew Point Humidity Pressure Visibility Wind Dir Wind Speed Gust Speed Precip Events Conditions
12:53 AM 42.1 °F 38.4 °F 37.9 °F 85% 30.40 in 10.0 mi East 5.8 mph - N/A   Overcast
1:53 AM 42.1 °F - 39.0 °F 89% 30.39 in 10.0 mi Calm Calm - N/A   Overcast
2:53 AM 41.0 °F - 39.9 °F 96% 30.37 in 10.0 mi Calm Calm - N/A   Overcast
3:53 AM 41.0 °F 39.0 °F 39.9 °F 96% 30.34 in 10.0 mi East 3.5 mph - N/A   Overcast
4:53 AM 42.1 °F - 39.9 °F 92% 30.33 in 10.0 mi Calm Calm - N/A   Overcast
5:53 AM 41.0 °F - 39.9 °F 96% 30.31 in 10.0 mi Calm Calm - N/A   Overcast
6:53 AM 41.0 °F 37.1 °F 39.9 °F 96% 30.29 in 10.0 mi East 5.8 mph - N/A   Overcast
7:53 AM 42.1 °F 37.7 °F 39.0 °F 89% 30.27 in 10.0 mi ENE 6.9 mph - N/A   Overcast
8:53 AM 43.0 °F 38.8 °F 39.0 °F 86% 30.25 in 10.0 mi East 6.9 mph - N/A Fog Patches of Fog
9:53 AM 43.0 °F 36.4 °F 39.0 °F 86% 30.22 in 10.0 mi East 12.7 mph - N/A Fog Patches of Fog
10:53 AM 45.0 °F 41.2 °F 39.0 °F 80% 30.19 in 10.0 mi East 6.9 mph - N/A   Overcast
11:53 AM 45.0 °F 41.8 °F 37.9 °F 76% 30.17 in 10.0 mi Variable 5.8 mph - N/A   Overcast
12:53 PM 45.0 °F 43.5 °F 37.9 °F 76% 30.14 in 10.0 mi Variable 3.5 mph - N/A   Overcast
1:53 PM 44.1 °F 42.5 °F 39.0 °F 82% 30.13 in 10.0 mi South 3.5 mph - N/A   Overcast
2:53 PM 45.0 °F 40.1 °F 39.0 °F 80% 30.09 in 10.0 mi East 9.2 mph - N/A   Overcast
3:53 PM 45.0 °F 39.3 °F 37.0 °F 74% 30.04 in 10.0 mi East 11.5 mph - N/A   Overcast
4:53 PM 45.0 °F 38.5 °F 37.0 °F 74% 30.00 in 10.0 mi East 13.8 mph - N/A   Overcast
5:53 PM 45.0 °F 37.9 °F 37.0 °F 74% 29.96 in 10.0 mi East 16.1 mph - N/A   Overcast
6:53 PM 45.0 °F 37.6 °F 37.0 °F 74% 29.92 in 10.0 mi East 17.3 mph - N/A   Overcast
7:53 PM 46.0 °F 40.6 °F 36.0 °F 68% 29.91 in 10.0 mi East 11.5 mph - N/A   Overcast
8:53 PM 46.0 °F 40.2 °F 37.0 °F 71% 29.87 in 10.0 mi ENE 12.7 mph - N/A   Overcast
9:53 PM 46.9 °F - 35.1 °F 63% 29.86 in 10.0 mi East 6.9 mph - 0.00 in Rain Light Rain
10:53 PM 50.0 °F - 32.0 °F 50% 29.88 in 10.0 mi Variable 3.5 mph - 0.00 in Rain Light Rain
11:53 PM 44.1 °F - 39.9 °F 85% 29.89 in 10.0 mi Calm Calm - 0.01 in Rain Light Rain